sat.trackr.live / text

‹ back to catalog

STARLINK-34674

NORAD 65526 · 2025-200G

PAYLOAD ACTIVE UNKNOWN

§ Identity

Operator
Country
US
Launch date
2025-09-06
Launch site
AFWTR
Launch vehicle
Mass (kg)
RCS (m²)

Purposes: comms

External: N2YO · Heavens-Above · Gunter

§ Orbital elements

Epoch: 2026-05-25T02:45:49.394592Z

Period
95.64 min
Inclination
97.4473°
Eccentricity
0.0003067
Mean motion
15.05655452 rev/d
Perigee alt
547.4 km
Apogee alt
551.6 km
Semi-major
6,927.6 km
B*
3.1085e-4
RAAN
214.8085°
Arg perigee
131.8836°
Mean anomaly
228.2654°
Rev number
4,064

§ Raw data

STARLINK-346741 65526U 25200G   26145.11515503  .00004430  00000+0  31085-3 0  99922 65526  97.4473 214.8085 0003067 131.8836 228.2654 15.05655452 40645

JSON: /api/v1/satellites/65526 · /tle

For live sub-satellite position, see the globe view (requires WebGL).

§ Visibility from observer

Set your observer location to see the next 7 days of passes ≥ 10°. The values pass through the URL so the page stays shareable.

No JS? Fill the form by hand. The geolocation button needs JavaScript.